Onion Creek, California Weather observations

Data are for observation ending at time listed.
 Day   Time    Ave.   Ave.  Ave.  Vector   Max.   Stn.    Total    Solar   Ave.   Snow 
  of    of     Air    Rel.  Wind   Wind    Wind   Baro.  Precip.   Rad.    Soil   Depth
Year   Day     Temp.  Hum.  Speed  Dir.    Gust   Pres.                    Temp.       
2014   (PST)    F      %     mph   deg.    mph     mb.     in.     W/m2     F      in. 
---------------------------------------------------------------------------------------  
 210    6:40   60.2    61    1.0    44      2.3   838.5   31.04      67    999.0   999.0
 210    6:50   60.7    62    0.3    55      1.5   838.6   31.07      76    999.0   999.0
 210    7:00   60.8    64    0.2   343      0.9   838.6   31.04      81    999.0   999.0
 210    7:10   61.2    64    0.8    66      1.4   838.6   31.07      86    999.0   999.0
 210    7:20   61.8    64    0.8    37      1.9   838.7   31.04     107    999.0   999.0
 210    7:30   62.4    63    0.8    42      2.1   838.6   31.04     139    999.0   999.0
 210    7:40   63.8    63    0.1    43      0.6   838.6   31.07     157    999.0   999.0
 210    7:50   65.0    61    0.2    45      0.9   838.6   31.07     181    999.0   999.0
 210    8:00   66.4    60    0.0    25      0.9   838.6   31.07     199    999.0   999.0
 210    8:10   66.9    60    0.1    31      0.9   838.6   31.04     191    999.0   999.0
 210    8:20   66.9    63    0.8   353      1.2   838.6   31.04     169    999.0   999.0
 210    8:30   67.1    61    0.6    84      1.5   838.5   31.04     182    999.0   999.0
 210    8:40   68.2    49    1.2   181      1.9   838.5   31.04     201    999.0   999.0
 210    8:50   69.0    48    1.1   252      2.3   838.6   31.04     228    999.0   999.0
 210    9:00   69.3    51    0.3   350      1.5   838.6   31.07     262    999.0   999.0
 210    9:10   70.0    42    1.3   270      2.6   838.6   31.04     369    999.0   999.0
 210    9:20   71.3    33    0.9   237      2.8   838.7   31.07     409    999.0   999.0
 210    9:30   72.5    32    1.1   262      4.1   838.7   31.07     455    999.0   999.0
 210    9:40   72.4    34    1.9   240      4.3   838.8   31.04     406    999.0   999.0
 210    9:50   72.6    34    1.7   209      4.3   839.0   31.07     502    999.0   999.0
 210   10:00   72.6    32    3.0   254      8.2   839.1   31.04     336    999.0   999.0
 210   10:10   72.6    32    2.0   286      5.6   839.1   31.04     315    999.0   999.0
 210   10:20   73.1    31    2.3   241      6.1   839.0   31.04     474    999.0   999.0
 210   10:30   74.4    29    2.0   263      5.3   839.0   31.04    1009    999.0   999.0
 210   10:40   76.0    28    2.0   257      5.8   839.0   31.04    1027    999.0   999.0
 210   10:50   76.9    28    2.3   304      5.8   838.8   31.04     954    999.0   999.0
 210   11:00   77.6    27    3.1   269      9.3   838.8   31.04    1022    999.0   999.0
 210   11:10   78.2    26    2.8   316      6.4   838.8   31.01     986    999.0   999.0
 210   11:20   78.6    25    2.7   202      6.9   838.7   31.04    1082    999.0   999.0
 210   11:30   79.2    23    2.7   166      6.3   838.6   31.01     946    999.0   999.0
 210   11:40   80.0    23    1.8   121      6.6   838.5   31.01    1032    999.0   999.0
 210   11:50   80.5    23    3.0   303      8.0   838.5   31.04     939    999.0   999.0
 210   12:00   80.0    23    2.1   273      6.0   838.4   31.01     945    999.0   999.0
 210   12:10   81.3    22    2.9   226     12.6   838.3   31.01     991    999.0   999.0
 210   12:20   80.4    20    3.5   261     11.0   838.3   31.04     882    999.0   999.0
 210   12:30   81.4    21    3.3   280     10.8   838.2   31.01     812    999.0   999.0
 210   12:40   80.4    22    3.2   229     10.7   838.2   31.01     714    999.0   999.0
 210   12:50   81.7    22    3.1   212      9.8   838.1   31.04    1074    999.0   999.0
 210   13:00   81.6    22    4.1   255     12.6   838.1   31.01    1072    999.0   999.0
 210   13:10   81.0    22    4.0   203     12.9   838.0   31.01     991    999.0   999.0
 210   13:20   80.5    22    2.6   174      9.3   837.9   31.01     828    999.0   999.0
 210   13:30   81.2    22    3.4   244      8.7   837.9   31.04     854    999.0   999.0
 210   13:40   81.4    21    3.1   255      8.0   837.8   31.01     734    999.0   999.0
 210   13:50   82.2    21    3.4   258     14.8   837.7   31.04    1028    999.0   999.0
 210   14:00   83.3    21    3.4   249      9.6   837.7   31.04    1002    999.0   999.0
 210   14:10   82.7    22    3.8   232     13.3   837.6   31.01    1024    999.0   999.0
 210   14:20   83.0    22    4.1   242      8.1   837.5   31.01     987    999.0   999.0
 210   14:30   83.2    22    2.5   258      8.3   837.5   31.01     967    999.0   999.0
 210   14:40   83.9    21    3.1   256      8.8   837.4   31.01     952    999.0   999.0
 210   14:50   83.9    21    2.8   262      8.5   837.4   31.01     901    999.0   999.0
 210   15:00   84.3    21    3.4   260      7.6   837.3   31.01     890    999.0   999.0
 210   15:10   83.1    22    2.7   266      8.8   837.3   31.01     664    999.0   999.0
 210   15:20   82.2    22    3.0   278     10.4   837.3   31.01     752    999.0   999.0
 210   15:30   83.3    22    3.1   275      9.1   837.2   31.01     789    999.0   999.0
 210   15:40   83.6    22    2.8   273      9.8   837.3   31.01     750    999.0   999.0
 210   15:50   83.5    22    4.2   280     10.4   837.3   31.01     780    999.0   999.0
 210   16:00   82.9    22    3.3   264      8.3   837.3   30.98     734    999.0   999.0
 210   16:10   81.6    23    2.9   265      9.0   837.4   31.01     411    999.0   999.0
 210   16:20   81.1    24    3.1   275      9.3   837.3   30.98     533    999.0   999.0
 210   16:30   80.8    24    2.4   247      8.5   837.3   31.01     363    999.0   999.0
 210   16:40   79.8    25    1.9   290      5.8   837.3   31.01     279    999.0   999.0
 210   16:50   80.4    25    3.0   248     10.2   837.3   31.01     575    999.0   999.0
 210   17:00   80.5    24    2.7   218      9.3   837.3   31.01     500    999.0   999.0
 210   17:10   80.7    24    2.8   188      7.0   837.3   31.01     480    999.0   999.0
 210   17:20   80.9    24    3.4   270      8.6   837.3   31.01     457    999.0   999.0
 210   17:30   80.6    24    4.4   282      9.3   837.3   31.01     413    999.0   999.0
 210   17:40   79.6    25    4.2   289     10.9   837.4   31.01     379    999.0   999.0
 210   17:50   79.5    24    3.3   269      9.6   837.3   31.01     332    999.0   999.0
 210   18:00   79.4    24    3.1   256      6.9   837.4   31.01     286    999.0   999.0
 210   18:10   79.1    24    2.4   262      6.4   837.5   31.01     243    999.0   999.0
 210   18:20   77.8    25    2.9   270      7.5   837.6   31.01     187    999.0   999.0
 210   18:30   76.8    25    2.1   265      5.2   837.6   31.01     123    999.0   999.0
 210   18:40   74.8    26    1.8   266      6.6   837.7   31.04      37    999.0   999.0
 210   18:50   73.0    28    1.1   260      5.3   837.7   31.01      24    999.0   999.0
 210   19:00   71.9    29    0.7   181      3.4   837.8   31.01      13    999.0   999.0
 210   19:10   70.6    31    0.6    90      1.8   837.9   31.04       8    999.0   999.0
 210   19:20   69.1    33    0.6    43      1.3   838.0   31.01       4    999.0   999.0
 210   19:30   67.8    36    0.6    20      1.8   838.0   31.01       1    999.0   999.0
 210   19:40   66.8    38    0.7    19      1.7   838.1   31.01       0    999.0   999.0
 210   19:50   66.3    39    1.4    39      2.1   838.2   31.04       0    999.0   999.0
 210   20:00   65.9    40    0.6    35      1.8   838.3   31.04       0    999.0   999.0
 210   20:10   65.5    41    0.8   360      1.6   838.3   31.01       0    999.0   999.0
 210   20:20   65.4    41    1.6    38      2.2   838.3   31.04       0    999.0   999.0
 210   20:30   65.4    40    1.0    41      2.2   838.3   31.01       0    999.0   999.0
 210   20:40   65.3    39    0.6    55      1.3   838.5   31.01       0    999.0   999.0
 210   20:50   65.1    40    0.6    34      1.1   838.5   31.01       0    999.0   999.0
 210   21:00   64.8    40    1.2    37      2.0   838.6   31.04       0    999.0   999.0
 210   21:10   64.8    39    0.9    40      1.8   838.6   31.04       0    999.0   999.0
 210   21:20   64.4    40    0.1    30      0.5   838.6   31.01       0    999.0   999.0
 210   21:30   63.8    40    0.7    38      2.0   838.5   31.01       0    999.0   999.0
 210   21:40   63.3    41    1.6    34      2.5   838.3   31.04       0    999.0   999.0
 210   21:50   62.9    41    1.0    34      2.0   838.2   31.01       0    999.0   999.0
 210   22:00   62.2    42    1.2    27      1.9   838.2   31.01       0    999.0   999.0
 210   22:10   61.5    43    1.5    37      2.6   838.0   31.01       0    999.0   999.0
 210   22:20   61.1    44    1.0    31      2.2   838.0   31.01       0    999.0   999.0
 210   22:30   60.6    45    1.9    50      2.9   837.9   31.01       0    999.0   999.0
 210   22:40   60.3    46    1.6    44      2.3   837.8   31.04       0    999.0   999.0
 210   22:50   60.3    46    1.6    42      2.4   837.8   31.04       0    999.0   999.0
 210   23:00   60.2    46    1.2    29      2.2   837.7   31.04       0    999.0   999.0
 210   23:10   59.6    48    0.5    47      1.7   837.7   31.04       0    999.0   999.0
 210   23:20   58.9    49    1.2    37      2.2   837.7   31.01       0    999.0   999.0
 210   23:30   59.1    48    1.1    44      2.9   837.6   31.04       0    999.0   999.0
 210   23:40   58.9    49    0.9    43      1.8   837.6   31.01       0    999.0   999.0
 210   23:50   58.5    51    0.3    45      1.5   837.5   31.01       0    999.0   999.0
 211    0:00   58.4    51    0.4    57      1.0   837.6   31.04       0    999.0   999.0
 211    0:10   58.4    52    0.8    34      2.3   837.6   31.04       0    999.0   999.0
 211    0:20   58.8    52    1.6    40      3.1   837.6   31.01       0    999.0   999.0
 211    0:30   59.8    50    1.4    26      2.7   837.4   31.04       0    999.0   999.0
 211    0:40   60.7    49    1.2    18      1.9   837.3   31.04       0    999.0   999.0
 211    0:50   60.8    49    1.2    23      2.1   837.2   31.04       0    999.0   999.0
 211    1:00   60.7    49    1.1    42      2.3   837.2   31.01       0    999.0   999.0
 211    1:10   60.7    50    0.2    46      1.4   837.2   31.04       0    999.0   999.0
 211    1:20   60.6    50    0.6    33      1.9   837.3   31.04       0    999.0   999.0
 211    1:30   60.7    50    1.7    36      3.0   837.3   31.04       0    999.0   999.0
 211    1:40   60.8    50    0.7    44      2.0   837.3   31.04       0    999.0   999.0
 211    1:50   60.7    50    0.2    15      1.2   837.4   31.04       0    999.0   999.0
 211    2:00   60.7    51    1.2    45      2.3   837.3   31.04       0    999.0   999.0
 211    2:10   60.9    51    0.9    17      1.7   837.3   31.07       0    999.0   999.0
 211    2:20   60.5    52    0.8    29      1.8   837.3   31.04       0    999.0   999.0
 211    2:30   60.9    50    1.9    42      2.9   837.4   31.04       0    999.0   999.0
 211    2:40   61.1    50    1.5    31      2.6   837.4   31.04       0    999.0   999.0
 211    2:50   60.6    51    0.9    17      1.9   837.2   31.04       0    999.0   999.0
 211    3:00   59.9    52    0.7    31      1.8   837.2   31.04       0    999.0   999.0
 211    3:10   59.8    52    0.6    53      1.5   837.2   31.04       0    999.0   999.0
 211    3:20   59.6    53    1.6    42      2.6   837.2   31.04       0    999.0   999.0
 211    3:30   59.1    54    1.4    30      2.2   837.1   31.04       0    999.0   999.0
 211    3:40   58.6    54    1.2    37      2.4   837.0   31.01       0    999.0   999.0
 211    3:50   58.1    56    0.1    42      0.8   836.9   31.04       0    999.0   999.0
 211    4:00   57.5    56    0.9    34      2.0   837.0   31.04       0    999.0   999.0
 211    4:10   57.3    56    1.4    42      2.0   836.9   31.04       0    999.0   999.0
 211    4:20   57.0    56    0.6    27      2.2   836.8   31.04       0    999.0   999.0
 211    4:30   56.4    57    1.1    33      2.3   836.8   31.04       0    999.0   999.0
 211    4:40   56.5    57    1.7    41      2.9   836.8   31.04       0    999.0   999.0
 211    4:50   56.9    56    0.8    38      3.1   836.9   31.04       1    999.0   999.0
 211    5:00   56.7    57    1.3    26      2.6   837.0   31.04       2    999.0   999.0
 211    5:10   56.8    56    1.4    38      2.6   837.1   31.04       5    999.0   999.0
 211    5:20   57.0    56    1.6    28      2.0   837.1   31.04       8    999.0   999.0
 211    5:30   57.2    56    1.7    36      3.1   837.2   31.07      12    999.0   999.0
 211    5:40   57.5    56    1.7    35      2.7   837.3   31.07      16    999.0   999.0
 211    5:50   57.5    57    1.5    33      3.0   837.3   31.07      19    999.0   999.0
 211    6:00   57.5    58    1.5    38      2.8   837.2   31.04      22    999.0   999.0
 211    6:10   57.3    60    1.0    33      1.8   837.3   31.04      25    999.0   999.0
 211    6:20   57.4    61    1.4    43      2.4   837.3   31.04      29    999.0   999.0
 211    6:30   57.8    61    1.6    39      3.4   837.4   31.04      33    999.0   999.0

Return to Onion Creek graphs page.


Western Regional Climate Center,wrcc@dri.edu